HETCH HETCHY (HTH)

Elevation: 3870' · TUOLUMNE R basin · Operator: Hetch Hetchy Water and Power

Provisional data, subject to change.
Query executed Tuesday at 14:09:00   clock

Select a sensor type for a plot of data.
Note: Reservoir Flows are daily averages.

Earlier

Date RES ELE    STORAGE    RES CHG    OUTFLOW    INFLOW    PPT INC    RAIN    PPTINC4   
 FEET   AF   AF   CFS   CFS   INCHES   INCHES   INCHES  
08/03/2014 -- 323960 -- 421 -- 0.00 21.09 0.00
08/04/2014 -- 323200 -- 384 -- 0.01 21.10 0.02
08/05/2014 -- 322250 -- 533 -- 0.00 21.10 0.00
08/06/2014 -- 321490 -- 455 -- 0.00 21.10 0.00
08/07/2014 -- 320740 -- 532 -- 0.00 21.10 0.00
08/08/2014 -- 319980 -- 487 -- 0.00 21.10 0.00
08/09/2014 -- 319220 -- 420 -- 0.00 21.10 0.00
08/10/2014 -- 318470 -- 403 -- 0.00 21.10 0.00
08/11/2014 -- 317900 -- 403 -- 0.00 21.10 0.00
08/12/2014 -- 317140 -- 453 -- 0.00 21.10 0.00
08/13/2014 -- 316390 -- 338 -- 0.00 21.10 0.00
08/14/2014 -- 315630 -- 451 -- 0.00 21.10 0.00
08/15/2014 -- 314690 -- 467 -- 0.00 21.10 0.00
08/16/2014 -- 313940 -- 413 -- 0.00 21.10 0.00
08/17/2014 -- 313380 -- 382 -- 0.00 21.10 0.00
08/18/2014 -- 312630 -- 432 -- 0.00 21.10 0.00
08/19/2014 -- 311690 -- 460 -- 0.00 21.10 0.00
08/20/2014 -- 310940 -- 462 -- 0.00 21.10 0.00
08/21/2014 -- 310010 -- 484 -- 0.00 21.10 0.00
08/22/2014 -- 309070 -- 471 -- 0.00 21.10 0.00
08/23/2014 -- 308320 -- 423 -- 0.00 21.10 0.00
08/24/2014 -- 307580 -- 374 -- 0.00 21.10 0.00
08/25/2014 -- 307010 -- 382 -- 0.00 21.10 0.00
08/26/2014 -- 306080 -- 454 -- 0.00 21.10 0.00
08/27/2014 -- 305150 -- 466 -- 0.00 21.10 0.00
08/28/2014 -- 304410 -- 466 -- 0.00 21.10 0.00
08/29/2014 -- -- -- -- -- 0.00 21.10 0.00
08/30/2014 -- -- -- -- -- 0.00 21.10 0.00
08/31/2014 -- -- -- -- -- 0.00 21.10 0.00
09/01/2014 -- -- -- -- -- 0.00 21.10 0.00
09/02/2014 -- -- -- -- -- 0.00 -- 0.00

Later | Latest

Warning! This data is preliminary and subject to revision.

Download Data Now Download Data Now | Show HTH Map | Plot HTH Data | 1 Month HTH Data | Real-Time HTH Data | HTH Info